Change the Weather History Date:

Thursday, October 4, 2012

  Actual Average (KGON) Record (KGON)
Temperature  
Mean Temperature 66 °F -  
Max Temperature 71 °F 67 °F 81 °F (1967)
Min Temperature 62 °F 47 °F 33 °F (1974)
Cooling Degree Days 1    
Growing Degree Days 16 (Base 50)    
Moisture  
Dew Point 63 °F    
Average Humidity 95    
Maximum Humidity 100    
Minimum Humidity 78    
Precipitation  
Precipitation 0.01 in - - ()
Sea Level Pressure  
Sea Level Pressure 30.10 in    
Wind  
Wind Speed 4 mph (NNE)    
Max Wind Speed 7 mph    
Max Gust Speed -    
Visibility 6 miles    
Events Rain    
Averages and records for this station are not official NWS values.
T = Trace of Precipitation, MM = Missing Value Source: NWS Daily Summary

Daily Weather History Graph

Daily Weather History Graph

Search for Another Location

Airport or City:

Trip Planner

Search our weather history database for the weather conditions in past years. The results will help you decide how hot, cold, wet, or windy it might be!

Date:

Astronomy

Oct. 04, 2012 Rise Set
Actual Time 6:47 AM EDT 6:23 PM EDT
Civil Twilight 6:19 AM EDT 6:50 PM EDT
Nautical Twilight 5:47 AM EDT 7:22 PM EDT
Astronomical Twilight 5:15 AM EDT 7:54 PM EDT
Moon 8:53 PM EDT 11:04 AM EDT
Length of Visible Light 12h 30m
Length of Day
11h 35m
Waning Gibbous, 82% of the Moon is Illuminated
Oct 4
Waning Gibbous
Oct 8
Last Quarter
Oct 15
New
Oct 21
First Quarter
Oct 29
Full

Hourly Weather History & Observations

Time (EDT) Temp. Dew Point Humidity Pressure Visibility Wind Dir Wind Speed Gust Speed Precip Events Conditions
12:03 AM 64.4 °F 64.4 °F 100% 30.13 in 0.8 mi ENE 4.6 mph - 0.00 in Rain Light Rain
12:17 AM 64.4 °F 64.4 °F 100% 30.13 in 1.0 mi NE 4.6 mph - 0.00 in Rain Light Rain
12:53 AM 64.0 °F 64.0 °F 100% 30.13 in 1.0 mi North 4.6 mph - 0.00 in   Overcast
1:15 AM 64.4 °F 64.4 °F 100% 30.13 in 2.5 mi ENE 6.9 mph - N/A   Overcast
1:29 AM 62.6 °F 62.6 °F 100% 30.13 in 3.0 mi NNE 5.8 mph - N/A   Overcast
1:50 AM 62.6 °F 62.6 °F 100% 30.13 in 2.0 mi NNE 5.8 mph - N/A   Overcast
1:53 AM 63.0 °F 63.0 °F 100% 30.13 in 2.5 mi NNE 5.8 mph - N/A   Overcast
2:13 AM 62.6 °F 62.6 °F 100% 30.13 in 5.0 mi North 4.6 mph - N/A   Overcast
2:53 AM 63.0 °F 63.0 °F 100% 30.12 in 5.0 mi NNE 4.6 mph - N/A   Overcast
3:12 AM 62.6 °F 62.6 °F 100% 30.13 in 6.0 mi NNE 4.6 mph - N/A   Overcast
3:43 AM 62.6 °F 62.6 °F 100% 30.13 in 2.0 mi NNW 3.5 mph - N/A   Overcast
3:53 AM 63.0 °F 62.1 °F 97% 30.13 in 1.8 mi North 4.6 mph - N/A   Overcast
4:49 AM 62.6 °F 62.6 °F 100% 30.14 in 2.0 mi NNE 3.5 mph - N/A   Overcast
4:53 AM 62.1 °F 62.1 °F 100% 30.14 in 2.0 mi North 4.6 mph - N/A   Overcast
5:34 AM 62.6 °F 62.6 °F 100% 30.12 in 3.0 mi NE 4.6 mph - N/A   Overcast
5:53 AM 62.1 °F 62.1 °F 100% 30.13 in 4.0 mi NNE 4.6 mph - N/A   Overcast
6:36 AM 62.6 °F 62.6 °F 100% 30.13 in 5.0 mi NNE 3.5 mph - N/A   Overcast
6:44 AM 62.6 °F 62.6 °F 100% 30.13 in 6.0 mi North 4.6 mph - N/A   Overcast
6:53 AM 62.1 °F 62.1 °F 100% 30.14 in 5.0 mi North 3.5 mph - N/A   Overcast
7:43 AM 62.6 °F 62.6 °F 100% 30.15 in 3.0 mi Calm Calm - N/A   Overcast
7:53 AM 63.0 °F 62.1 °F 97% 30.15 in 3.0 mi North 3.5 mph - N/A   Overcast
8:23 AM 62.6 °F 62.6 °F 100% 30.14 in 3.0 mi Calm Calm - N/A   Overcast
8:51 AM 62.6 °F 62.6 °F 100% 30.15 in 5.0 mi North 4.6 mph - N/A   Overcast
8:53 AM 63.0 °F 62.1 °F 97% 30.15 in 5.0 mi North 4.6 mph - N/A   Overcast
9:05 AM 64.4 °F 62.6 °F 94% 30.14 in 6.0 mi NNE 4.6 mph - N/A   Overcast
9:31 AM 64.4 °F 62.6 °F 94% 30.15 in 9.0 mi North 4.6 mph - N/A   Overcast
9:53 AM 64.9 °F 62.1 °F 90% 30.14 in 9.0 mi North 6.9 mph - N/A   Overcast
10:53 AM 66.0 °F 63.0 °F 90% 30.14 in 10.0 mi North 4.6 mph - N/A   Overcast
11:53 AM 68.0 °F 63.0 °F 84% 30.14 in 10.0 mi Calm Calm - N/A   Overcast
12:13 PM 69.8 °F 62.6 °F 78% 30.13 in 10.0 mi NNW 4.6 mph - N/A   Overcast
12:53 PM 69.1 °F 64.0 °F 84% 30.11 in 10.0 mi North 5.8 mph - N/A   Overcast
1:46 PM 69.8 °F 64.4 °F 83% 30.08 in 10.0 mi ENE 4.6 mph - N/A   Overcast
1:53 PM 70.0 °F 64.0 °F 81% 30.09 in 10.0 mi Calm Calm - N/A   Overcast
2:13 PM 69.8 °F 64.4 °F 83% 30.07 in 10.0 mi East 6.9 mph - N/A   Overcast
2:20 PM 69.8 °F 64.4 °F 83% 30.07 in 10.0 mi East 4.6 mph - N/A   Overcast
2:40 PM 68.0 °F 64.4 °F 88% 30.08 in 10.0 mi South 3.5 mph - N/A   Overcast
2:53 PM 68.0 °F 64.0 °F 87% 30.07 in 10.0 mi Calm Calm - N/A   Overcast
3:53 PM 66.9 °F 63.0 °F 87% 30.06 in 10.0 mi SSW 5.8 mph - N/A   Overcast
4:46 PM 66.2 °F 62.6 °F 88% 30.07 in 10.0 mi SSW 4.6 mph - N/A   Overcast
4:53 PM 66.9 °F 63.0 °F 87% 30.07 in 10.0 mi SSW 4.6 mph - N/A   Overcast
5:24 PM 66.2 °F 62.6 °F 88% 30.08 in 10.0 mi SSW 3.5 mph - N/A   Overcast
5:53 PM 66.0 °F 63.0 °F 90% 30.07 in 8.0 mi SW 4.6 mph - N/A   Overcast
6:53 PM 66.0 °F 64.0 °F 93% 30.05 in 8.0 mi Calm Calm - N/A   Overcast
7:32 PM 64.4 °F 64.4 °F 100% 30.06 in 7.0 mi Calm Calm - N/A   Overcast
7:53 PM 64.9 °F 64.0 °F 97% 30.06 in 8.0 mi Calm Calm - N/A   Overcast
8:07 PM 64.4 °F 64.4 °F 100% 30.06 in 8.0 mi Calm Calm - N/A   Overcast
9:01 PM 64.4 °F 64.4 °F 100% 30.05 in 7.0 mi Calm Calm - N/A   Overcast
9:53 PM 64.9 °F 63.0 °F 93% 30.07 in 7.0 mi Calm Calm - 0.01 in Rain Light Rain
10:38 PM 64.4 °F 64.4 °F 100% 30.05 in 6.0 mi Calm Calm - 0.00 in   Overcast
10:53 PM 64.0 °F 63.0 °F 96% 30.04 in 4.0 mi Calm Calm - 0.00 in   Overcast
11:01 PM 64.4 °F 64.4 °F 100% 30.04 in 4.0 mi South 3.5 mph - N/A   Overcast
11:09 PM 64.4 °F 64.4 °F 100% 30.05 in 4.0 mi Calm Calm - N/A   Overcast
11:53 PM 64.0 °F 64.0 °F 100% 30.04 in 5.0 mi Calm Calm - N/A   Overcast